Location: Peterborough
(44.3091°N, 78.3197°W)
Time: 07:15:31
(UTC-04:00)

Vanguard 3 - Pass Details

Date: 25 March 2023
Orbit: 507 x 3246 km, 33.4° (Epoch: 04 June)

Event Time Altitude Azimuth Distance (km) Brightness Sun altitude
Rises 11:17:43 0° 277° (W) 6,546 11.4 39.8°
Reaches altitude 10° 11:25:04 10° 259° (W) 4,955 11.0 40.6°
Maximum altitude 11:31:27 15° 230° (SW) 3,936 10.8 41.3°
Drops below altitude 10° 11:36:33 10° 200° (SSW) 3,769 11.1 41.9°
Sets 11:40:51 0° 177° (S) 4,235 11.5 42.3°
